• In Deutschland
  • Länderverzeichnis
  • Für 7 Tage
  • Wassertemperatur
  • Satellitenkarten
  • Wetterkarte
  • Widgets
  • user-avatar
    Anmelden

    Stündliche Wetter Hemer

    Heute, 22 Mai, Dienstag

    Zeit Temperatur Niederschläge Wind Luftdruck Luftfeuchtigkeit
    00:00 +14°C° 0,4 mm 3 m/S 739 mmHg 80%
    01:00 +14°C° 0,4 mm 3 m/S 739 mmHg 82%
    02:00 +15°C° 0,8 mm 2 m/S 739 mmHg 84%
    03:00 +14°C° 0,8 mm 2 m/S 738 mmHg 86%
    04:00 +14°C° 0,8 mm 2 m/S 738 mmHg 88%
    05:00 +15°C° 0,1 mm 2 m/S 738 mmHg 87%
    06:00 +15°C° 0,1 mm 2 m/S 738 mmHg 86%
    07:00 +16°C° 0,1 mm 2 m/S 739 mmHg 85%
    08:00 +18°C° 0,1 mm 2 m/S 739 mmHg 78%
    09:00 +19°C° 0,1 mm 2 m/S 739 mmHg 71%
    10:00 +21°C° 0,1 mm 3 m/S 739 mmHg 65%
    11:00 +23°C° 0,5 mm 2 m/S 739 mmHg 62%
    12:00 +24°C° 0,5 mm 2 m/S 739 mmHg 59%
    13:00 +25°C° 0,5 mm 2 m/S 739 mmHg 57%
    14:00 +24°C° 0,5 mm 2 m/S 739 mmHg 59%
    15:00 +24°C° 0,5 mm 2 m/S 739 mmHg 61%
    16:00 +24°C° 0,5 mm 2 m/S 739 mmHg 62%
    17:00 +23°C° 0,5 mm 2 m/S 739 mmHg 67%
    18:00 +21°C° 0,5 mm 2 m/S 739 mmHg 72%
    19:00 +20°C° 0,5 mm 2 m/S 739 mmHg 77%
    20:00 +19°C° 0,3 mm 2 m/S 739 mmHg 79%
    21:00 +18°C° 0,3 mm 2 m/S 740 mmHg 82%
    22:00 +17°C° 0,3 mm 2 m/S 740 mmHg 84%
    23:00 +16°C° 0 mm 2 m/S 740 mmHg 84%

    Morgen, 23 Mai, Mittwoch

    Zeit Temperatur Niederschläge Wind Luftdruck Luftfeuchtigkeit
    00:00 +16°C° 0 mm 2 m/S 741 mmHg 84%
    01:00 +16°C° 0 mm 2 m/S 741 mmHg 84%
    02:00 +15°C° 0 mm 2 m/S 741 mmHg 84%
    03:00 +15°C° 0 mm 2 m/S 741 mmHg 84%
    04:00 +14°C° 0 mm 2 m/S 741 mmHg 83%
    05:00 +15°C° 0 mm 2 m/S 742 mmHg 83%
    06:00 +15°C° 0 mm 2 m/S 742 mmHg 82%
    07:00 +16°C° 0 mm 2 m/S 743 mmHg 81%
    08:00 +16°C° 0,2 mm 2 m/S 743 mmHg 79%
    09:00 +17°C° 0,2 mm 2 m/S 743 mmHg 77%
    10:00 +18°C° 0,2 mm 3 m/S 744 mmHg 76%
    11:00 +19°C° 0,6 mm 3 m/S 744 mmHg 73%
    12:00 +20°C° 0,6 mm 4 m/S 744 mmHg 70%
    13:00 +21°C° 0,6 mm 4 m/S 744 mmHg 68%
    14:00 +22°C° 0,2 mm 4 m/S 744 mmHg 65%
    15:00 +22°C° 0,2 mm 4 m/S 744 mmHg 63%
    16:00 +22°C° 0,2 mm 4 m/S 744 mmHg 60%
    17:00 +22°C° 0 mm 4 m/S 744 mmHg 62%
    18:00 +21°C° 0 mm 4 m/S 744 mmHg 64%
    19:00 +20°C° 0 mm 4 m/S 744 mmHg 66%
    20:00 +19°C° 0 mm 4 m/S 744 mmHg 68%
    21:00 +18°C° 0 mm 3 m/S 745 mmHg 71%
    22:00 +17°C° 0 mm 3 m/S 745 mmHg 73%
    23:00 +16°C° 0 mm 3 m/S 745 mmHg 73%

    übermorgen, 24 Mai, Donnerstag

    Zeit Temperatur Niederschläge Wind Luftdruck Luftfeuchtigkeit
    00:00 +16°C° 0 mm 3 m/S 745 mmHg 74%
    01:00 +14°C° 0 mm 3 m/S 745 mmHg 75%
    02:00 +14°C° 0 mm 3 m/S 745 mmHg 76%
    03:00 +14°C° 0 mm 3 m/S 745 mmHg 77%
    04:00 +13°C° 0 mm 3 m/S 745 mmHg 78%
    05:00 +14°C° 0 mm 4 m/S 745 mmHg 77%
    06:00 +15°C° 0 mm 4 m/S 745 mmHg 76%
    07:00 +17°C° 0 mm 4 m/S 745 mmHg 74%
    08:00 +17°C° 0 mm 5 m/S 745 mmHg 70%
    09:00 +20°C° 0 mm 5 m/S 745 mmHg 66%
    10:00 +21°C° 0 mm 5 m/S 745 mmHg 62%
    11:00 +22°C° 0,1 mm 5 m/S 745 mmHg 62%
    12:00 +22°C° 0,1 mm 5 m/S 745 mmHg 62%
    13:00 +23°C° 0,1 mm 5 m/S 744 mmHg 61%
    14:00 +23°C° 0,8 mm 5 m/S 744 mmHg 65%
    15:00 +23°C° 0,8 mm 5 m/S 744 mmHg 69%
    16:00 +22°C° 0,8 mm 5 m/S 743 mmHg 73%
    17:00 +22°C° 0,4 mm 4 m/S 743 mmHg 75%
    18:00 +21°C° 0,4 mm 4 m/S 743 mmHg 78%
    19:00 +20°C° 0,4 mm 4 m/S 743 mmHg 81%
    20:00 +19°C° 0,2 mm 4 m/S 743 mmHg 82%
    21:00 +19°C° 0,2 mm 3 m/S 743 mmHg 84%
    22:00 +18°C° 0,2 mm 3 m/S 743 mmHg 86%
    23:00 +18°C° 0,4 mm 3 m/S 743 mmHg 87%

    25 Mai, Freitag

    Zeit Temperatur Niederschläge Wind Luftdruck Luftfeuchtigkeit
    00:00 +17°C° 0,4 mm 3 m/S 743 mmHg 87%
    01:00 +17°C° 0,4 mm 3 m/S 743 mmHg 88%
    02:00 +17°C° 0 mm 3 m/S 743 mmHg 89%
    03:00 +17°C° 0 mm 3 m/S 743 mmHg 90%
    04:00 +16°C° 0 mm 3 m/S 743 mmHg 90%
    05:00 +17°C° 0,2 mm 3 m/S 743 mmHg 89%
    06:00 +17°C° 0,2 mm 3 m/S 743 mmHg 89%
    07:00 +18°C° 0,2 mm 3 m/S 743 mmHg 88%
    08:00 +19°C° 0,4 mm 3 m/S 743 mmHg 83%
    09:00 +21°C° 0,4 mm 3 m/S 743 mmHg 78%
    10:00 +22°C° 0,4 mm 3 m/S 744 mmHg 73%
    11:00 +24°C° 0,6 mm 3 m/S 743 mmHg 69%
    12:00 +25°C° 0,6 mm 3 m/S 743 mmHg 65%
    13:00 +26°C° 0,6 mm 3 m/S 743 mmHg 60%
    14:00 +26°C° 0,6 mm 2 m/S 743 mmHg 61%
    15:00 +26°C° 0,6 mm 2 m/S 743 mmHg 62%
    16:00 +26°C° 0,6 mm 2 m/S 743 mmHg 64%
    17:00 +25°C° 0,5 mm 2 m/S 743 mmHg 68%
    18:00 +24°C° 0,5 mm 2 m/S 743 mmHg 73%
    19:00 +23°C° 0,5 mm 2 m/S 743 mmHg 78%
    20:00 +21°C° 0,1 mm 2 m/S 743 mmHg 80%
    21:00 +20°C° 0,1 mm 2 m/S 743 mmHg 82%
    22:00 +19°C° 0,1 mm 2 m/S 743 mmHg 85%
    23:00 +18°C° 0 mm 2 m/S 743 mmHg 85%

    26 Mai, Samstag

    Zeit Temperatur Niederschläge Wind Luftdruck Luftfeuchtigkeit
    00:00 +19°C° 0 mm 1 m/S 743 mmHg 86%
    01:00 +19°C° 0 mm 1 m/S 743 mmHg 87%
    02:00 +18°C° 0 mm 1 m/S 743 mmHg 87%
    03:00 +18°C° 0 mm 1 m/S 743 mmHg 87%
    04:00 +18°C° 0 mm 1 m/S 743 mmHg 88%
    05:00 +19°C° 0 mm 1 m/S 744 mmHg 86%
    06:00 +20°C° 0 mm 1 m/S 744 mmHg 83%
    07:00 +21°C° 0 mm 1 m/S 744 mmHg 81%
    08:00 +23°C° 0 mm 1 m/S 744 mmHg 73%
    09:00 +25°C° 0 mm 1 m/S 744 mmHg 64%
    10:00 +27°C° 0 mm 1 m/S 745 mmHg 56%
    11:00 +28°C° 0 mm 1 m/S 745 mmHg 52%
    12:00 +30°C° 0 mm 1 m/S 745 mmHg 48%
    13:00 +31°C° 0 mm 1 m/S 745 mmHg 44%
    14:00 +30°C° 0,1 mm 1 m/S 744 mmHg 46%
    15:00 +30°C° 0,1 mm 1 m/S 744 mmHg 47%
    16:00 +30°C° 0,1 mm 1 m/S 744 mmHg 49%
    17:00 +28°C° 0,2 mm 1 m/S 744 mmHg 56%
    18:00 +27°C° 0,2 mm 2 m/S 744 mmHg 62%
    19:00 +26°C° 0,2 mm 2 m/S 744 mmHg 69%
    20:00 +25°C° 0 mm 2 m/S 744 mmHg 72%
    21:00 +24°C° 0 mm 2 m/S 745 mmHg 75%
    22:00 +23°C° 0 mm 2 m/S 745 mmHg 78%
    23:00 +21°C° 0 mm 2 m/S 745 mmHg 80%

    27 Mai, Sonntag

    Zeit Temperatur Niederschläge Wind Luftdruck Luftfeuchtigkeit
    00:00 +20°C° 0 mm 2 m/S 745 mmHg 82%
    01:00 +20°C° 0 mm 1 m/S 745 mmHg 84%
    02:00 +20°C° 0 mm 1 m/S 745 mmHg 85%
    03:00 +20°C° 0 mm 1 m/S 745 mmHg 86%
    04:00 +19°C° 0 mm 1 m/S 745 mmHg 87%
    05:00 +19°C° 0 mm 2 m/S 745 mmHg 84%
    06:00 +20°C° 0 mm 2 m/S 745 mmHg 81%
    07:00 +21°C° 0 mm 2 m/S 745 mmHg 79%
    08:00 +24°C° 0 mm 3 m/S 745 mmHg 72%
    09:00 +25°C° 0 mm 3 m/S 746 mmHg 65%
    10:00 +27°C° 0 mm 3 m/S 746 mmHg 59%
    11:00 +28°C° 0 mm 3 m/S 746 mmHg 56%
    12:00 +29°C° 0 mm 3 m/S 746 mmHg 52%
    13:00 +30°C° 0 mm 3 m/S 746 mmHg 49%
    14:00 +30°C° 0,1 mm 3 m/S 745 mmHg 50%
    15:00 +30°C° 0,1 mm 3 m/S 745 mmHg 52%
    16:00 +30°C° 0,1 mm 3 m/S 745 mmHg 53%
    17:00 +29°C° 0 mm 4 m/S 745 mmHg 59%
    18:00 +28°C° 0 mm 4 m/S 744 mmHg 64%
    19:00 +26°C° 0 mm 4 m/S 744 mmHg 70%
    20:00 +25°C° 0 mm 4 m/S 745 mmHg 73%
    21:00 +23°C° 0 mm 4 m/S 745 mmHg 77%
    22:00 +22°C° 0 mm 3 m/S 745 mmHg 81%
    23:00 +21°C° 0,1 mm 3 m/S 745 mmHg 81%
    Mehr zeigen